Location: Luxembourg
(49.6117°N, 6.1300°E)
Time: 17:16:51
(UTC+02:00)

Envisat - Pass Details

Date: 29 January 2019
Orbit: 764 x 766 km, 98.2° (Epoch: 20 April)

Event Time Altitude Azimuth Distance (km) Brightness Sun altitude
Rises 20:08:02 0° 195° (SSW) 3,218 6.4 -26.3°
Reaches altitude 10° 20:10:38 10° 207° (SSW) 2,297 5.7 -26.7°
Maximum altitude 20:14:59 29° 266° (W) 1,395 4.9 -27.4°
Drops below altitude 10° 20:19:22 10° 326° (NW) 2,314 5.9 -28.1°
Sets 20:22:00 0° 338° (NNW) 3,245 6.6 -28.5°
